GFSSW_700_rhum_240.txt.gz
RH
3 4 4 3 3 2 2 2 2 2 2 2 2 2 4 6 7 6 3 4 22 48 18 7 6 5 5 7 7 24 30 24 18 16 12 9 8 10 12 13 17 22 29 65 73
2 2 2 2 2 2 2 2 2 2 2 2 1 1 1 2 2 5 7 5 4 9 48 31 8 6 6 7 11 31 32 22 20 15 14 12 9 10 12 11 15 22 39 46 66
2 2 2 2 2 2 2 2 2 2 2 2 2 2 2 1 1 2 2 5 7 4 5 50 44 9 24 36 9 17 25 19 22 18 15 13 11 10 12 12 15 20 33 30 52
2 3 3 2 2 2 2 2 2 2 2 2 2 2 2 2 10 42 25 11 6 8 5 5 57 45 9 42 36 28 14 24 22 19 14 13 14 14 13 12 13 14 22 31 28
3 3 3 3 3 3 2 2 2 2 2 2 2 2 2 2 2 6 13 15 12 19 14 5 6 58 38 21 41 32 16 20 25 25 18 16 18 17 18 15 14 14 26 29 33
4 4 3 3 3 3 3 3 3 3 2 2 2 2 3 3 12 11 26 15 7 24 17 23 42 41 86 61 42 28 24 22 24 29 24 21 20 24 17 17 16 15 17 23 25
4 4 4 4 4 3 3 3 3 3 4 6 7 7 6 9 12 13 11 10 12 24 24 23 99 93 87 88 55 32 24 17 19 24 27 25 24 23 16 22 19 18 17 17 19
4 4 4 4 4 4 3 3 3 5 8 11 17 30 28 58 55 36 38 31 9 14 36 32 98 96 89 86 80 49 26 20 15 18 22 26 26 16 12 21 20 19 18 17 16
4 4 5 4 4 3 3 4 6 8 12 14 25 42 84 68 91 89 90 78 66 38 70 69 93 96 88 90 79 62 36 20 16 15 20 22 24 12 21 19 15 12 15 17 15
4 4 5 5 4 4 4 6 8 12 16 32 69 86 76 82 80 78 70 72 82 71 55 60 82 89 98 90 76 56 46 26 18 15 16 20 22 20 21 17 18 14 14 15 15
4 5 5 5 4 4 5 6 13 39 20 30 48 56 66 69 75 81 88 85 78 72 58 49 56 97 82 78 63 49 40 35 26 18 15 16 18 20 21 14 16 12 14 15 14
4 6 6 5 4 4 6 11 16 18 21 40 56 67 71 63 67 82 92 95 66 62 58 54 43 68 96 78 62 55 44 40 34 26 22 17 16 14 14 16 14 14 14 13 14
5 6 6 5 5 5 8 11 18 20 30 48 45 58 40 56 56 69 69 90 89 56 62 50 40 39 65 71 66 53 49 41 40 40 33 26 23 15 14 14 15 14 13 16 13
6 6 6 5 8 6 13 15 18 25 77 40 34 37 34 34 38 72 74 93 87 89 67 77 42 32 46 58 61 54 51 43 37 34 35 40 35 20 17 22 24 15 14 14 16
6 6 7 6 6 10 14 17 20 55 66 39 32 30 29 31 30 57 88 66 83 70 76 70 60 31 33 47 50 54 47 44 42 34 35 44 36 29 23 28 28 21 20 18 16
6 7 7 7 6 8 14 20 64 88 61 45 33 29 31 28 28 44 72 89 94 75 78 73 73 66 31 37 44 40 49 46 48 75 56 51 62 50 34 28 28 25 24 22 23
7 7 8 7 8 10 11 61 79 59 54 38 36 29 30 29 29 56 58 75 93 84 71 66 53 72 54 46 31 59 45 60 82 97 89 44 51 60 37 33 30 29 30 29 25
8 8 8 8 9 10 19 89 82 40 49 40 39 30 34 36 32 60 59 73 79 66 77 90 60 81 51 57 48 31 62 77 77 84 48 44 37 33 35 30 28 25 30 35 32
9 8 9 10 11 13 61 71 64 63 45 46 41 35 36 42 39 41 64 55 63 62 87 97 86 93 89 81 59 48 33 53 72 74 82 39 33 30 25 25 25 26 25 28 33
9 9 13 12 12 18 89 32 70 65 54 51 45 42 40 42 50 46 49 77 59 60 70 87 76 91 94 75 66 66 74 64 83 95 84 55 39 33 30 29 22 24 30 31 36
11 21 17 14 14 70 83 55 70 65 61 60 60 54 47 43 60 62 59 57 60 60 66 73 77 67 70 95 97 92 86 92 93 90 73 62 37 40 36 40 42 54 59 56 47
11 43 18 14 85 24 26 91 53 60 66 67 64 59 52 51 62 50 50 85 69 59 74 71 83 78 52 63 87 69 87 89 97 97 96 96 62 57 52 60 61 69 59 57 56
17 17 18 14 75 55 25 50 25 68 63 63 64 62 59 69 66 74 52 83 64 57 66 53 81 70 53 67 70 79 92 66 80 74 84 90 66 74 65 71 88 90 80 66 60
22 14 15 14 67 90 96 91 67 65 75 68 68 67 66 88 68 65 57 67 62 63 58 72 81 65 67 79 67 50 45 79 81 86 70 79 70 76 94 91 88 88 90 82 69
15 15 34 22 25 75 86 86 84 74 77 75 73 72 66 78 79 91 76 83 65 77 80 96 89 71 67 65 56 45 39 36 39 48 61 65 61 51 57 54 70 78 58 54 44
17 17 20 32 93 90 92 63 78 74 65 81 74 72 81 90 82 79 85 78 74 73 82 83 88 84 75 63 47 36 38 40 39 38 37 34 33 33 32 31 33 48 50 43 40
22 31 21 49 91 89 93 96 93 78 77 82 76 76 80 80 85 87 85 82 80 79 78 81 85 87 83 62 64 55 48 41 35 32 31 29 28 27 26 28 27 29 31 33 33

GFSSW_700_rhum_243.txt.gz
RH
4 4 4 3 2 2 2 2 1 1 1 1 1 1 1 1 1 2 4 7 6 4 11 40 20 8 6 5 7 9 31 23 14 23 18 8 13 12 11 13 16 18 16 28 46
2 2 2 2 2 2 2 2 2 2 2 2 2 2 2 1 1 1 1 1 3 7 5 7 45 36 10 6 6 12 15 4 8 11 16 9 16 14 13 10 14 18 23 35 59
2 2 2 2 2 2 2 2 2 2 2 2 2 2 2 2 2 4 4 2 1 2 6 6 7 55 37 9 7 9 10 8 5 7 13 11 15 16 14 12 11 17 20 30 42
3 3 3 3 3 2 2 2 2 2 2 2 2 2 2 2 4 4 4 6 8 6 4 8 6 7 57 30 9 22 6 10 11 9 16 16 17 16 14 15 12 12 17 19 19
3 3 3 3 3 3 3 3 2 2 2 2 2 2 2 2 2 2 2 2 2 3 16 12 10 6 8 51 31 34 6 8 9 12 15 18 16 17 15 15 13 13 18 29 30
4 4 4 3 3 3 3 3 3 2 2 2 2 2 3 4 8 6 6 7 5 4 3 23 22 59 23 22 67 24 11 31 23 12 17 22 16 20 14 13 14 14 25 34 30
4 4 4 4 3 3 3 3 3 2 3 4 5 10 13 14 13 20 14 41 38 31 16 16 31 97 99 88 33 65 38 32 33 22 17 18 21 20 11 14 14 14 14 19 27
4 4 4 4 4 3 3 3 3 4 5 5 8 14 16 24 53 44 40 44 66 57 34 15 78 92 98 99 88 94 83 65 24 25 20 22 20 10 14 16 14 13 15 15 17
5 4 4 4 4 4 3 3 3 4 7 8 18 12 27 27 60 63 70 70 68 54 67 29 87 88 89 99 96 89 93 72 45 23 19 18 21 9 14 22 16 14 13 14 16
5 4 4 4 4 4 3 4 4 8 10 22 20 29 36 30 46 61 70 72 68 85 46 53 64 85 85 89 90 88 85 84 61 32 21 18 17 17 13 25 25 20 12 9 9
5 5 5 5 4 4 4 4 6 9 19 27 33 43 42 39 36 54 51 61 71 89 84 53 59 61 75 74 95 80 77 69 68 51 25 17 16 17 20 21 23 23 21 13 9
5 5 5 5 4 4 4 4 10 15 35 29 36 44 39 35 33 38 43 57 78 87 84 73 60 55 60 68 85 97 84 68 62 50 33 22 16 14 16 18 17 16 20 13 14
6 6 5 5 5 4 4 5 17 26 41 34 34 32 31 30 32 29 44 53 70 78 68 84 73 49 47 55 78 86 90 75 65 49 42 32 27 21 16 16 17 15 15 15 13
6 6 5 5 9 5 5 6 29 38 51 37 32 30 28 29 29 30 43 66 78 68 74 75 53 58 48 40 61 92 62 72 65 55 48 42 54 40 28 21 18 15 15 15 15
7 6 6 6 5 5 6 16 39 55 74 39 33 31 30 30 28 50 62 65 73 72 93 77 90 71 58 42 41 65 70 68 60 58 52 50 72 70 55 39 26 18 15 14 15
8 7 6 6 6 6 6 32 43 54 58 43 35 34 32 37 35 42 58 54 64 70 78 71 61 92 78 50 36 40 47 56 68 58 83 66 63 62 50 38 27 16 22 23 18
8 7 7 7 6 6 8 43 59 23 55 42 39 37 35 41 38 42 54 50 59 63 67 67 88 82 90 60 41 34 56 91 68 91 91 62 62 51 40 33 29 31 27 28 25
9 8 8 8 7 8 9 42 80 37 51 43 43 36 37 41 47 43 55 61 55 62 76 86 86 81 97 99 94 58 52 93 81 83 73 55 66 43 35 31 28 32 30 31 31
10 8 8 9 8 10 19 53 41 66 52 47 48 41 43 44 45 59 59 68 45 59 75 95 84 80 93 91 84 64 65 67 79 91 81 62 48 39 38 35 37 32 33 29 35
11 10 10 10 10 12 50 42 27 68 61 48 55 50 54 49 55 56 61 69 57 57 69 66 82 73 61 68 76 85 96 66 96 97 93 75 51 53 51 41 36 42 45 38 45
12 11 25 12 11 21 62 58 48 67 62 44 63 61 59 52 60 57 55 57 70 59 59 47 80 64 76 90 97 77 86 96 95 96 98 84 88 100 66 60 60 64 69 65 49
12 17 21 13 15 38 19 67 40 44 65 65 64 62 64 58 71 68 59 58 71 65 66 55 76 87 98 86 78 85 91 94 95 94 87 98 99 98 94 77 63 59 59 61 63
13 15 22 13 19 43 39 20 22 20 60 65 66 65 61 72 81 68 56 63 83 68 74 82 72 82 68 53 49 54 56 86 95 82 97 98 98 93 97 99 98 91 63 60 57
15 20 15 14 15 31 77 81 58 44 54 63 69 69 72 71 74 69 65 81 70 69 78 86 89 85 89 84 70 63 45 44 48 60 57 62 60 50 67 85 90 83 96 93 77
17 20 16 18 17 18 61 84 68 83 76 77 65 72 72 85 84 73 78 74 56 56 67 85 91 90 75 50 63 60 51 43 37 36 46 38 37 36 36 34 39 40 53 71 63
18 18 18 28 56 64 57 79 74 50 74 69 80 79 76 83 80 81 78 74 68 46 59 59 74 73 62 53 72 65 52 44 39 36 32 35 34 31 29 33 38 40 54 48 46
21 20 20 31 33 61 59 70 78 83 69 72 70 78 80 80 83 81 80 55 60 64 64 74 76 76 80 63 58 32 52 50 44 37 35 34 35 35 35 36 37 35 40 43 45

GFSSW_700_rhum_246.txt.gz
RH
4 4 4 3 3 2 2 2 2 2 1 2 1 1 1 1 1 1 1 1 2 5 7 4 11 47 18 6 7 10 11 5 4 6 4 3 6 13 14 16 25 15 16 12 15
2 2 2 2 2 2 2 2 2 2 2 2 2 2 2 2 2 2 2 2 1 1 2 7 5 8 55 18 7 9 9 6 5 4 3 3 6 12 14 14 19 20 19 23 23
2 2 2 2 2 2 2 2 2 2 2 2 2 2 2 2 2 2 3 3 3 3 1 2 6 5 9 56 16 8 6 5 7 6 6 4 8 13 16 14 42 46 14 18 22
3 3 3 3 3 3 3 3 3 2 2 2 2 2 2 2 2 2 1 1 1 2 3 4 3 7 5 24 50 15 7 5 5 9 10 6 6 9 16 13 16 20 65 24 24
4 4 4 3 3 3 3 3 3 2 2 2 2 2 2 2 3 4 3 3 3 2 2 4 14 7 9 5 36 46 21 8 6 6 8 10 7 14 12 14 16 18 33 67 26
4 4 4 4 3 3 3 3 3 2 2 2 3 4 5 7 8 7 6 5 6 5 6 9 16 38 19 25 15 11 40 35 13 8 6 8 8 16 5 13 14 16 26 72 61
5 4 4 4 4 3 3 3 3 2 3 4 6 6 9 12 8 11 13 16 19 21 14 21 30 94 77 76 37 12 25 54 40 15 11 9 9 10 9 9 14 14 21 77 59
5 5 4 4 4 4 3 3 3 3 4 8 8 9 16 17 25 28 30 35 38 41 32 22 33 60 98 89 78 61 46 61 35 34 15 34 15 7 10 11 13 14 16 41 75
5 5 4 4 4 4 3 3 4 6 9 13 10 16 17 18 31 34 34 32 37 44 41 48 55 48 84 90 94 90 87 68 17 51 31 37 18 5 7 13 16 13 14 20 47
6 5 5 4 4 4 4 4 5 8 16 15 15 19 26 22 26 33 32 31 40 46 45 48 64 52 68 86 91 80 90 82 88 65 60 46 22 12 7 10 16 17 13 14 17
6 6 5 5 4 4 4 4 8 16 16 20 25 27 27 26 28 32 33 32 41 51 61 70 76 63 61 80 92 75 90 85 81 84 75 57 32 17 18 19 13 16 16 14 15
6 6 5 5 5 4 4 4 8 13 24 28 26 27 29 30 27 31 36 47 42 62 77 75 78 63 62 64 97 87 88 98 89 82 68 67 48 30 21 19 18 16 15 13 13
7 6 6 5 5 5 4 5 14 24 25 25 27 30 30 30 28 36 44 38 51 75 68 74 58 70 63 58 65 94 86 87 99 76 68 64 56 40 26 22 17 16 14 14 12
8 7 6 6 8 5 5 6 14 24 25 24 27 34 34 32 40 45 42 41 61 79 84 78 75 86 73 67 55 58 75 88 99 92 76 60 57 47 41 34 23 15 15 17 17
8 7 6 6 6 5 5 8 21 29 40 32 29 34 36 36 44 47 51 42 40 62 80 69 88 96 80 68 59 50 54 64 68 84 97 69 95 56 45 42 30 24 18 16 16
9 8 7 6 6 6 6 10 32 25 39 37 35 34 40 39 43 50 56 35 34 42 64 91 96 88 97 68 65 52 42 40 58 74 97 74 83 66 51 42 30 26 21 21 19
10 9 8 7 7 6 6 14 24 21 46 39 35 37 40 45 39 52 58 55 55 58 56 66 85 86 95 78 56 58 50 64 80 89 95 64 74 54 42 35 37 32 36 27 20
10 9 8 8 7 7 7 24 21 33 50 35 43 40 42 50 47 56 59 66 56 64 68 74 68 66 93 96 83 64 56 73 85 85 79 54 68 64 44 43 42 52 45 34 29
11 10 9 8 8 8 9 27 12 33 51 35 27 43 50 53 49 57 61 72 65 70 70 59 53 77 94 96 97 68 66 61 61 80 87 61 62 58 54 52 62 68 65 44 38
12 11 10 10 9 9 14 31 18 36 56 36 60 52 62 60 52 65 61 67 73 70 58 70 73 81 94 96 87 92 97 98 87 98 98 77 100 99 88 90 77 85 86 62 56
13 12 16 12 10 10 22 25 32 64 58 38 52 60 64 64 56 67 51 55 86 72 48 84 78 91 76 71 67 66 90 94 98 99 98 95 99 100 99 100 100 89 72 69 60
14 14 22 16 13 19 15 14 24 50 59 59 63 65 64 62 70 68 50 57 86 76 60 66 78 92 81 69 51 39 72 75 94 94 95 97 98 96 100 98 100 89 69 61 63
14 14 22 19 13 20 19 17 16 18 34 62 63 62 59 71 76 73 63 60 76 69 81 59 81 82 63 54 54 38 47 63 56 55 79 82 89 75 83 96 96 97 76 60 57
15 16 18 20 16 18 23 37 35 23 41 37 46 63 68 73 77 78 78 65 55 60 67 70 80 88 95 77 65 70 49 56 51 51 42 47 42 35 38 52 74 90 95 94 69
16 19 18 17 15 14 19 32 44 43 54 69 63 61 71 81 81 77 69 53 44 38 45 67 75 76 69 49 69 80 61 52 53 47 54 36 40 45 38 38 45 67 78 77 79
16 18 18 19 20 25 36 29 40 51 55 75 74 70 74 79 76 78 70 63 58 33 51 66 79 76 74 54 47 36 47 45 47 46 36 45 68 65 39 37 40 52 58 64 57
19 19 19 20 22 28 33 34 51 64 56 72 77 74 65 63 69 69 66 61 54 43 51 54 72 72 68 55 40 52 54 54 67 57 56 74 83 72 60 62 54 47 46 45 45

GFSSW_700_rhum_252.txt.gz
RH
6 5 5 4 4 4 4 3 3 2 2 2 2 2 2 2 2 2 2 2 2 2 2 2 5 7 5 31 22 7 8 6 6 7 7 6 5 4 4 4 5 12 16 18 39
4 3 4 2 2 2 2 2 2 3 2 2 2 2 2 2 2 2 2 2 2 2 2 2 2 1 4 6 27 26 10 7 7 6 7 7 7 6 4 4 5 12 18 15 30
2 2 2 2 4 3 3 3 3 3 5 2 2 2 2 2 2 3 4 3 2 2 2 2 2 3 2 3 10 24 18 21 17 12 8 6 6 6 5 3 4 11 18 18 27
2 2 3 3 3 3 3 3 3 3 3 2 2 2 2 2 3 3 2 2 2 2 1 1 1 1 1 4 3 7 8 17 27 19 15 12 8 6 6 4 4 8 16 46 17
3 3 3 3 3 3 3 3 3 3 3 2 2 2 2 3 3 3 2 2 2 2 1 1 1 2 2 2 4 2 2 13 29 35 26 14 10 8 6 7 3 6 18 42 37
4 4 4 4 4 4 3 3 3 3 3 3 3 3 3 5 3 3 3 3 2 2 3 2 3 3 3 3 6 5 4 4 7 26 30 31 20 11 12 6 5 4 25 29 54
5 5 5 4 4 4 3 3 3 3 3 4 4 4 5 5 3 3 3 3 3 3 3 5 6 7 10 11 11 6 6 7 9 12 24 35 31 23 14 10 6 6 18 20 47
5 5 5 4 4 4 4 3 3 4 5 6 5 5 6 6 6 5 5 6 5 8 12 16 18 16 15 18 16 15 19 38 30 32 30 24 10 10 17 16 8 6 8 18 18
6 6 5 5 4 4 4 4 4 5 6 7 6 8 9 12 10 11 9 11 12 12 15 18 18 21 26 26 30 35 30 24 37 58 65 54 10 8 15 27 18 8 7 8 19
6 6 6 5 5 4 4 4 4 6 7 8 7 11 13 15 15 16 15 13 11 15 15 22 34 46 44 55 66 54 52 51 52 66 53 85 67 49 39 32 32 28 15 7 9
7 6 6 6 5 4 4 4 8 9 9 7 12 16 20 22 22 21 16 12 10 13 20 24 33 52 54 60 66 77 68 67 59 80 75 60 76 82 76 38 36 34 23 19 8
7 7 6 6 5 5 4 4 6 9 13 12 16 21 27 30 28 19 13 13 10 11 21 26 52 72 67 69 85 83 79 68 64 61 76 78 56 61 68 75 55 30 35 18 16
8 7 7 6 6 6 5 5 7 11 14 18 20 25 26 30 31 21 17 15 13 16 21 48 57 71 87 87 96 90 86 70 69 63 49 94 83 41 59 55 67 64 35 28 21
8 8 7 6 6 6 5 6 7 14 18 19 22 32 32 27 35 31 18 17 16 28 34 44 49 75 84 95 97 97 79 70 68 68 90 74 92 66 49 60 55 52 55 48 39
9 8 8 7 7 6 6 6 11 18 28 19 21 28 33 24 25 28 24 17 16 29 34 37 51 80 90 91 97 92 81 67 66 61 97 80 91 96 75 67 65 59 54 46 36
10 9 8 7 7 6 6 7 16 24 17 22 25 33 24 27 29 30 23 21 15 17 32 42 66 81 84 90 95 89 89 72 61 69 96 79 66 97 90 96 78 72 60 43 39
11 10 9 8 8 7 6 8 18 11 18 23 22 27 23 25 29 31 28 32 54 48 37 43 57 68 92 82 89 82 95 72 95 89 92 56 66 99 98 96 93 83 66 53 44
12 10 9 9 8 8 7 11 14 12 15 18 13 21 31 24 32 36 42 34 46 58 62 73 70 85 88 98 98 88 81 66 77 91 71 50 85 98 100 91 87 91 95 72 51
12 11 10 9 9 8 9 11 11 10 14 13 12 19 31 34 33 39 50 53 58 62 67 76 58 72 88 91 96 83 94 87 92 63 68 67 96 98 98 92 82 81 84 83 78
13 12 11 10 9 9 10 11 15 11 13 13 13 22 31 35 35 42 49 45 44 58 64 61 77 64 60 57 64 85 92 96 98 97 96 97 91 98 96 97 89 74 69 75 77
12 12 13 12 11 10 11 11 17 14 14 18 19 26 35 37 40 48 46 51 59 46 48 54 84 44 61 62 60 56 63 85 97 95 95 95 94 97 96 100 96 97 95 74 75
13 14 15 15 14 12 11 12 16 14 19 20 22 29 35 41 46 51 55 57 67 56 37 53 65 69 45 63 43 35 48 59 95 95 86 95 95 91 94 95 98 97 100 98 77
15 14 19 22 18 15 13 13 16 16 22 24 24 31 32 41 44 55 54 58 57 44 36 38 66 72 39 43 34 42 54 48 74 86 80 80 78 74 85 89 93 96 96 98 92
17 18 19 22 22 22 19 16 18 17 18 19 23 29 32 37 43 49 53 56 46 42 42 44 51 76 81 73 71 51 62 43 47 60 77 92 98 77 58 76 95 95 92 96 96
17 20 22 24 18 23 21 17 21 20 18 16 21 26 35 39 40 45 44 38 36 34 44 54 41 56 50 62 52 65 69 59 57 58 63 99 90 100 91 83 93 97 91 79 84
18 24 21 24 22 27 23 18 18 27 24 21 24 32 41 36 38 46 47 40 33 50 51 49 39 48 46 55 53 92 80 77 68 81 95 96 88 82 96 92 93 96 93 84 84
18 19 24 25 22 22 20 17 18 23 30 31 33 41 43 41 45 41 44 40 40 39 39 43 44 55 44 56 58 71 80 71 68 73 83 86 85 88 94 92 71 74 74 76 80

GFSSW_700_rhum_258.txt.gz
RH
4 4 4 5 5 4 3 3 3 4 4 4 4 4 4 4 4 3 4 4 4 5 4 5 6 7 6 6 18 31 24 18 15 20 18 10 6 8 9 6 9 6 6 12 14
3 3 2 3 2 2 2 2 2 3 2 2 2 2 2 2 2 2 3 2 2 2 2 2 2 2 3 6 7 10 24 23 24 27 25 24 9 6 8 16 10 4 8 6 12
2 2 2 2 3 3 3 3 4 3 6 2 3 2 2 2 2 2 3 3 2 2 2 1 2 2 2 2 6 22 23 31 33 21 19 19 19 16 7 9 16 16 10 8 7
3 3 3 3 3 3 3 3 4 3 6 4 3 4 2 2 8 3 2 2 2 1 1 1 1 1 1 2 1 2 6 6 30 19 20 19 13 14 16 11 10 7 6 7 6
3 4 4 4 4 3 3 3 3 3 3 3 3 3 4 4 4 3 2 2 2 2 1 1 1 1 1 1 1 2 19 10 6 7 14 12 10 12 11 16 16 8 6 6 6
4 4 4 4 4 4 4 3 3 3 3 3 3 3 5 6 4 3 2 2 2 1 1 1 1 1 1 1 1 3 2 3 4 4 4 4 4 7 8 13 15 18 11 6 6
4 5 5 5 4 4 4 3 3 3 3 3 4 4 5 5 4 4 3 2 2 2 1 1 1 1 1 2 2 2 4 13 30 39 32 11 2 1 8 11 21 19 19 12 7
5 5 6 5 5 4 4 4 3 3 4 5 4 5 5 5 5 4 3 2 2 2 2 1 1 2 3 4 16 14 20 21 28 39 32 40 29 31 45 38 20 13 18 21 10
6 6 6 5 5 4 4 4 4 4 5 6 5 6 8 6 7 4 3 3 2 2 2 2 4 9 30 38 25 30 30 32 33 38 40 33 23 30 57 54 30 10 25 31 20
6 6 6 6 5 5 4 4 4 5 7 6 7 9 8 7 6 4 4 3 3 2 3 6 19 39 45 40 29 44 47 44 37 39 44 45 41 36 34 32 41 23 12 14 22
7 7 7 6 6 5 4 4 6 8 8 8 7 7 8 7 7 6 4 4 3 3 7 12 36 49 62 32 62 70 65 57 52 52 60 54 49 44 40 34 26 41 52 53 45
8 8 7 6 6 5 5 4 6 8 9 8 8 8 9 6 8 6 4 4 3 6 32 40 42 28 30 51 68 65 62 56 60 64 67 60 54 44 40 43 33 37 47 58 54
8 8 8 7 6 6 5 5 5 6 8 11 10 10 11 7 7 6 5 4 4 12 12 35 34 36 64 66 70 70 73 67 76 77 62 52 41 39 48 64 59 47 58 67 22
9 9 8 7 7 6 6 5 5 7 28 14 13 13 13 8 9 6 6 5 6 10 16 27 35 45 68 70 80 80 83 84 81 72 52 47 48 59 87 95 83 84 88 72 36
10 10 9 8 7 7 6 5 6 8 64 17 16 15 12 11 10 9 6 6 5 10 30 29 39 54 73 80 77 85 52 92 83 60 53 49 77 97 99 94 97 98 96 58 37
11 10 9 8 8 7 7 6 7 20 50 19 15 20 14 11 11 10 8 6 6 15 26 32 38 58 62 80 63 74 86 63 57 53 58 53 57 97 95 97 97 100 98 79 63
11 11 10 9 8 7 6 6 18 41 14 22 20 16 16 12 13 12 9 7 16 31 34 44 55 64 58 55 82 80 80 47 44 56 44 41 82 97 98 95 98 96 99 100 97
12 11 10 9 8 8 7 10 20 12 23 16 14 14 35 13 14 15 14 41 10 34 36 41 41 53 40 63 64 92 92 88 74 46 40 60 94 96 98 95 98 96 97 99 100
13 12 11 10 9 9 8 12 9 9 9 11 15 32 24 14 20 22 15 21 12 11 40 46 52 55 41 47 45 63 66 84 97 71 68 91 96 95 97 96 92 96 96 96 92
13 12 12 11 10 9 10 8 8 9 10 11 23 21 35 29 27 36 34 19 20 12 11 29 54 48 44 47 51 53 65 91 86 84 71 86 81 97 93 95 98 93 96 98 96
13 13 13 12 10 10 12 9 9 11 11 12 17 11 33 21 31 31 34 21 18 15 12 15 46 53 41 59 51 61 71 91 93 85 78 83 81 95 94 96 95 97 97 92 96
13 15 15 14 13 12 11 10 10 11 12 12 12 11 17 16 19 38 34 26 17 16 27 15 61 58 52 49 26 53 72 81 87 79 89 94 81 97 100 94 95 93 95 96 95
16 14 17 17 15 12 12 11 12 13 14 16 15 14 15 20 29 39 29 19 17 19 22 19 62 52 49 56 47 59 64 76 80 88 86 80 94 100 100 98 99 97 100 85 73
19 19 18 22 16 13 13 13 13 13 17 16 18 15 18 26 20 39 38 23 19 21 19 20 54 53 40 52 47 52 58 70 61 67 62 77 84 90 83 83 88 87 87 92 95
19 21 19 32 17 14 14 14 14 15 16 20 21 18 18 20 32 47 66 28 22 22 23 28 45 56 59 58 58 64 67 66 60 58 62 74 71 78 85 84 78 74 80 80 84
21 25 22 53 21 19 17 15 15 14 17 17 20 18 18 20 24 29 41 54 42 23 34 25 58 54 46 59 68 73 70 69 68 70 72 69 65 80 78 74 76 73 76 82 89
29 22 32 22 19 23 22 16 15 21 18 19 21 21 20 28 32 34 39 35 34 40 59 34 30 38 66 59 66 76 66 65 67 70 67 59 67 65 67 73 74 71 72 79 53

GFSSW_700_rhum_261.txt.gz
RH
6 6 6 6 6 5 3 4 4 4 4 5 5 5 6 6 6 6 7 11 10 13 11 9 8 8 8 24 30 28 23 18 15 12 14 17 13 14 16 16 12 12 14 23 28
4 4 4 4 3 2 2 2 2 2 2 2 2 2 2 2 2 2 3 3 3 4 5 5 4 5 13 31 34 28 23 21 22 21 20 22 24 15 13 17 14 14 15 17 14
2 2 2 2 2 3 3 3 3 3 5 3 3 2 2 2 9 2 2 3 2 2 2 2 2 2 16 25 30 27 22 24 27 24 21 20 20 24 24 16 16 15 16 17 21
2 2 2 3 3 3 3 3 4 3 5 4 3 3 2 3 29 4 2 2 2 2 1 1 1 2 16 18 31 16 24 37 35 38 19 14 10 10 15 29 19 17 21 25 24
3 3 3 4 4 3 3 3 3 3 3 3 6 5 4 5 4 2 2 2 3 2 1 1 1 4 19 17 16 14 18 31 25 12 5 2 2 3 5 28 28 17 11 8 8
4 4 4 4 4 4 4 3 3 3 3 3 3 4 6 8 4 3 3 2 2 4 9 2 1 1 2 4 7 15 7 6 13 16 14 16 19 6 7 13 28 29 16 12 17
4 5 5 5 5 4 4 4 3 3 4 4 4 4 6 5 4 3 2 4 2 1 1 1 1 1 1 7 1 2 4 16 18 27 26 24 20 12 20 6 7 14 19 14 14
5 6 6 5 5 4 4 4 4 4 4 5 5 6 6 4 4 3 2 2 2 2 1 1 2 4 8 16 32 26 20 18 21 23 28 27 22 20 26 38 40 34 41 41 26
5 6 6 6 5 5 4 4 4 4 6 6 6 16 8 4 4 3 3 2 2 2 3 5 24 37 32 23 19 18 22 25 25 24 25 33 29 26 27 29 30 37 33 38 44
6 6 6 6 5 5 4 4 5 6 7 7 8 18 6 6 5 4 3 2 2 5 27 34 36 27 29 26 24 33 32 29 28 29 31 34 35 35 35 33 31 29 28 28 42
6 7 7 6 6 5 4 5 8 10 10 44 22 17 7 6 5 4 3 2 11 28 33 32 28 33 36 45 47 43 39 33 30 35 41 42 38 35 36 35 32 29 26 24 32
7 7 7 7 6 5 5 5 17 23 13 8 8 7 7 5 23 4 3 14 26 30 34 28 32 36 46 47 47 45 43 35 34 38 44 38 34 30 71 65 50 32 27 26 29
8 8 8 7 6 6 5 5 7 8 37 10 11 8 8 7 6 4 3 4 23 29 29 27 36 46 48 45 52 48 48 48 48 47 36 31 29 78 74 66 90 66 38 38 54
9 9 8 7 7 6 6 5 6 7 43 38 15 12 9 6 14 4 4 10 16 30 34 35 40 52 52 51 56 51 56 61 54 47 36 33 32 91 97 84 97 99 94 90 77
10 10 9 8 7 7 6 5 6 8 90 32 30 18 8 28 10 16 4 14 30 16 49 36 43 51 54 55 58 58 69 65 61 41 36 41 40 97 91 80 63 74 83 86 99
11 10 10 8 8 7 7 6 9 42 67 27 30 23 30 17 8 8 9 5 5 37 37 36 35 48 52 56 56 67 55 51 46 37 49 50 56 98 94 100 75 86 86 95 98
12 11 10 9 8 8 7 8 50 76 28 34 27 30 30 32 14 27 34 34 31 29 25 37 39 50 50 51 56 54 55 37 39 54 44 48 77 98 98 98 95 95 96 98 98
12 12 11 10 8 8 7 25 58 45 20 27 28 30 28 30 32 18 37 32 13 28 22 27 38 40 39 48 42 48 67 54 59 42 35 66 84 98 96 98 95 91 96 98 97
12 12 12 10 9 8 8 72 22 24 29 27 30 30 34 26 35 38 43 38 14 15 38 35 41 38 40 47 42 47 47 69 79 52 70 65 89 98 95 96 97 96 85 96 97
13 12 12 11 9 9 38 26 37 20 31 27 25 27 31 31 28 35 40 13 12 7 10 38 43 42 41 51 40 48 57 62 77 79 70 50 59 84 88 90 94 99 96 94 94
14 13 14 12 10 12 39 17 12 9 15 30 26 29 27 32 34 39 40 29 9 15 11 38 51 46 41 54 42 48 55 81 86 71 70 72 78 80 99 89 98 94 92 89 91
15 18 17 14 13 17 19 31 19 9 10 21 27 33 31 37 36 43 42 48 11 12 51 20 55 46 37 45 39 52 55 65 92 84 76 86 92 93 84 85 89 92 96 97 100
21 25 22 16 22 16 16 23 17 18 10 15 21 39 38 42 43 46 48 29 12 18 58 47 72 50 47 52 50 41 51 57 72 86 81 86 91 75 67 69 74 71 69 75 83
91 57 33 20 29 47 16 19 14 13 36 26 43 41 43 47 51 53 55 16 13 23 12 14 57 49 40 40 40 37 41 50 55 69 53 52 57 58 58 60 61 61 64 64 66
80 65 27 22 19 28 42 26 26 28 18 44 49 47 46 51 58 58 56 50 15 13 15 42 53 49 48 42 41 40 42 44 45 49 49 55 48 52 61 57 57 60 61 62 66
51 78 94 74 25 18 42 58 54 52 20 37 39 47 48 48 40 36 56 61 53 44 51 64 76 57 26 45 42 47 48 47 46 45 48 47 46 58 55 55 56 58 60 64 73
84 70 100 96 98 46 26 56 47 49 59 46 38 52 52 54 55 56 61 64 65 63 72 72 47 64 76 46 45 56 51 48 49 48 48 45 51 45 48 54 57 57 72 74 80

GFSSW_700_rhum_264.txt.gz
RH
7 7 7 8 8 8 6 4 4 5 5 5 6 5 5 6 6 9 19 23 26 29 23 21 19 19 20 25 41 31 24 18 14 12 12 11 12 12 14 14 13 12 13 23 16
5 5 5 4 7 3 2 2 2 2 2 2 2 2 2 2 4 4 4 8 10 13 13 11 13 18 9 19 36 37 29 23 21 22 21 25 18 15 13 13 13 14 14 16 18
2 2 2 3 3 3 3 3 3 2 3 2 3 2 2 3 7 6 3 3 3 3 4 5 4 5 19 22 29 29 26 22 27 24 21 20 20 22 26 31 14 17 16 18 23
2 2 2 2 2 2 2 2 3 3 5 4 3 3 3 4 37 4 3 2 3 2 2 2 3 5 19 18 23 31 28 25 31 30 21 21 20 18 19 19 24 18 15 18 19
2 3 3 3 3 3 3 3 3 3 3 3 5 4 4 9 6 2 2 2 2 2 2 3 17 20 18 17 21 20 15 22 22 21 18 9 8 7 4 7 12 17 17 16 16
3 4 4 4 4 4 4 4 3 3 3 3 4 6 9 23 4 3 4 2 3 4 1 1 1 6 19 17 11 15 8 10 9 10 14 11 6 4 13 17 8 9 18 15 17
4 4 5 5 5 5 4 4 3 3 3 4 4 5 10 7 6 4 2 4 2 2 5 5 1 2 3 7 2 4 4 12 14 20 21 22 13 17 21 28 26 13 12 16 16
4 5 6 6 5 5 4 4 4 3 4 5 5 6 5 4 3 3 2 3 3 1 1 1 2 8 12 12 14 22 18 16 20 21 21 23 25 21 21 24 28 34 36 31 26
4 5 6 6 6 5 4 4 4 4 5 6 7 22 33 5 3 2 2 2 2 2 8 12 15 29 26 24 21 20 19 22 23 23 26 26 26 28 31 32 32 31 29 29 28
4 6 6 6 6 5 4 4 4 5 6 7 7 27 21 9 4 3 2 2 2 9 20 26 29 23 28 28 22 27 27 26 24 25 30 32 34 34 33 34 35 37 36 32 29
5 6 6 6 6 5 5 4 7 8 6 48 42 37 32 5 4 3 3 3 18 33 32 30 24 28 35 37 36 35 33 28 26 26 30 30 30 48 58 46 42 55 60 49 28
7 6 7 7 6 6 5 6 20 44 36 9 9 14 7 5 30 8 7 29 27 26 34 25 30 35 39 37 38 36 32 29 28 34 36 31 29 65 83 62 62 51 49 55 37
8 7 8 7 6 6 5 5 13 17 18 18 16 20 7 5 18 5 6 21 25 25 28 27 28 36 40 39 38 33 41 42 43 42 31 27 36 76 82 64 58 74 62 75 76
9 8 8 8 7 6 6 5 7 8 60 39 12 15 7 6 20 4 3 14 21 27 29 29 31 42 40 37 43 42 50 52 50 45 29 30 29 81 56 59 71 52 83 86 87
10 9 9 8 8 7 6 5 6 8 92 41 30 20 9 19 27 13 4 19 28 23 50 34 38 41 41 42 48 47 42 53 49 44 33 43 40 89 54 56 64 75 66 93 74
11 10 10 9 8 8 7 6 6 49 68 32 28 17 12 17 15 13 6 8 12 32 30 30 32 26 41 46 38 44 46 44 45 39 53 57 44 100 86 98 83 76 84 83 84
12 11 10 10 8 8 8 6 39 88 39 30 28 29 29 29 21 33 32 32 34 33 31 33 33 41 34 35 44 41 48 38 36 55 64 52 69 94 88 90 87 81 83 94 95
12 12 11 11 9 9 8 18 81 50 34 29 24 30 26 27 30 31 32 28 18 27 18 25 39 32 30 41 37 40 44 53 57 48 40 58 81 96 78 86 85 86 84 85 86
13 12 11 11 9 10 12 92 31 17 30 25 25 25 25 26 31 31 34 32 31 22 38 25 38 32 26 36 33 44 50 49 68 56 54 71 99 87 99 79 79 91 94 94 86
13 13 12 11 10 10 32 78 24 39 26 25 26 26 26 30 30 31 38 35 16 5 19 30 39 35 33 46 37 41 51 63 73 69 61 71 81 83 87 77 80 72 77 74 75
14 15 17 13 10 12 41 72 26 38 29 26 26 27 25 28 27 33 37 40 15 8 8 30 52 47 40 46 36 46 49 71 78 79 62 62 95 86 93 74 87 92 90 97 92
16 39 26 16 13 14 14 57 39 37 16 30 28 29 28 29 30 36 37 43 12 11 42 15 52 44 36 39 33 44 51 58 83 90 79 79 95 74 70 75 74 79 73 83 76
20 77 35 32 18 15 15 21 58 39 41 27 22 35 33 33 34 36 41 44 14 9 50 16 53 50 48 49 46 39 48 50 64 75 88 74 89 66 56 57 58 58 60 61 66
57 99 99 65 26 45 20 27 43 30 44 42 32 37 40 39 43 41 48 37 14 14 11 12 60 60 49 41 45 36 39 42 52 63 64 58 46 50 51 52 51 55 56 58 62
88 89 82 94 38 34 70 55 29 48 29 47 45 41 44 46 50 52 51 48 14 10 11 12 38 48 45 39 35 30 33 34 41 49 47 52 42 45 50 53 52 52 54 59 66
92 94 100 80 60 31 60 91 63 59 42 49 46 47 48 50 50 48 52 58 34 17 16 16 69 54 41 39 34 33 33 35 37 37 35 41 40 49 50 48 50 53 61 66 68
94 86 94 99 100 81 28 89 79 56 51 35 48 55 49 50 56 51 53 63 63 51 36 69 43 56 75 42 40 43 35 38 39 40 40 42 50 49 43 50 53 54 74 76 61

GFSSW_700_rhum_270.txt.gz
RH
6 6 6 8 13 14 11 10 4 5 5 5 6 7 6 5 5 6 8 15 23 27 32 28 20 18 14 10 7 10 21 20 18 21 24 20 14 13 13 14 16 25 24 42 67
6 6 7 8 10 10 10 4 4 3 3 2 2 3 4 4 5 6 7 12 19 26 31 31 25 24 22 22 14 16 18 19 20 28 26 21 17 14 16 24 34 44 55 59 74
4 4 3 3 6 6 5 4 6 3 3 3 3 2 2 2 3 5 4 7 12 18 25 24 18 16 23 27 26 31 31 28 32 32 30 27 22 21 19 18 24 27 34 44 72
2 2 2 2 3 2 2 2 3 3 3 4 4 3 3 2 15 3 3 3 4 7 10 12 17 14 16 22 39 41 37 33 32 34 32 29 27 23 20 18 16 18 23 27 29
2 2 2 2 2 3 3 3 3 3 3 3 4 4 3 3 3 2 2 2 3 3 3 5 6 14 18 23 31 27 31 27 27 28 23 13 16 19 19 17 15 16 17 17 24
2 3 3 4 4 4 4 4 4 4 3 3 3 5 3 4 5 3 2 2 2 2 2 5 5 13 18 19 21 29 30 21 18 18 14 11 13 16 17 21 24 12 8 9 12
3 3 4 5 5 5 4 4 4 4 3 3 2 3 3 4 5 3 4 2 2 6 2 7 10 18 18 19 22 24 27 21 17 18 17 18 14 16 22 22 26 22 12 7 16
3 3 4 5 6 6 5 5 4 4 3 3 3 3 3 3 2 2 5 3 2 6 3 5 19 19 19 17 17 12 10 15 23 24 22 19 30 26 26 26 23 27 26 24 18
3 4 4 5 6 6 5 5 4 4 3 3 3 4 5 3 3 2 3 11 3 12 24 19 16 12 12 19 17 21 25 24 28 30 27 25 28 31 31 25 22 22 21 22 25
5 4 4 6 6 6 5 5 4 4 4 4 4 4 7 4 3 2 15 26 22 22 25 16 13 16 22 21 25 25 25 26 28 26 25 22 25 43 29 29 29 32 30 27 24
6 6 5 5 6 6 5 5 5 5 4 6 9 8 14 7 4 3 9 26 28 27 27 20 14 28 29 28 28 26 30 29 30 24 22 38 36 35 40 50 39 31 28 26 24
8 7 6 6 6 6 6 5 6 11 6 6 10 7 9 5 4 5 19 18 21 26 25 22 12 28 31 30 29 36 32 31 31 24 32 46 40 44 46 36 34 32 31 28 26
10 8 6 6 7 6 6 6 6 8 20 9 6 6 7 5 5 4 15 18 23 27 24 24 24 36 32 33 33 36 32 18 12 33 41 41 35 46 44 42 38 32 33 40 40
11 10 8 7 7 7 6 6 6 9 8 13 8 6 6 6 6 4 21 24 25 28 28 29 23 38 33 15 28 34 34 22 24 43 38 49 47 59 58 48 39 42 41 47 47
11 10 9 8 7 7 7 6 7 10 27 27 19 12 9 7 15 4 19 24 29 26 22 27 20 34 38 16 41 45 37 34 42 48 51 50 48 68 55 41 39 45 49 62 64
11 11 10 8 8 8 7 6 9 9 24 34 28 19 11 6 14 5 10 17 23 28 32 31 10 13 22 20 35 28 27 33 42 49 61 56 45 64 51 48 47 48 50 64 65
10 12 11 10 9 10 9 7 11 20 27 32 24 19 17 11 17 12 15 19 24 30 36 29 31 18 36 42 44 26 38 47 63 71 78 62 60 63 55 54 50 50 53 58 59
10 12 12 11 10 13 14 10 11 9 34 32 28 22 19 12 17 18 17 25 31 34 33 36 37 32 23 44 35 22 28 40 59 84 72 67 72 69 58 55 52 56 54 53 52
12 11 12 11 10 11 18 17 8 14 31 31 28 21 27 24 16 34 34 30 26 35 33 37 37 36 29 10 34 33 32 39 57 68 71 83 83 68 62 51 53 55 58 58 53
14 12 12 12 11 12 17 12 8 32 33 37 23 20 30 30 26 28 30 31 34 29 31 35 37 39 22 16 23 30 25 54 65 78 81 96 82 62 59 52 56 54 51 60 65
22 15 14 13 13 15 22 13 10 30 40 34 26 23 25 30 26 22 27 32 34 31 26 34 29 38 31 36 33 30 28 25 59 68 85 97 81 62 58 51 53 59 61 67 66
63 27 20 14 15 14 19 14 13 30 46 34 27 26 24 27 26 24 30 31 26 19 13 33 39 38 38 51 45 37 33 19 44 75 76 68 48 55 40 50 61 61 60 59 61
83 56 32 31 34 17 13 14 18 16 44 36 29 25 28 28 28 27 29 36 36 12 9 27 44 40 43 39 38 22 27 30 26 58 64 74 55 61 48 59 60 58 55 56 56
95 81 42 96 81 45 16 12 16 15 25 38 29 26 28 30 31 30 31 37 37 31 9 14 36 35 31 37 31 29 28 33 20 38 57 50 56 58 52 59 55 53 52 53 51
98 88 65 58 100 69 46 17 13 12 17 41 30 27 30 34 32 29 37 36 38 36 11 18 14 38 50 38 50 45 28 36 38 24 58 41 56 56 52 56 54 48 44 48 32
98 99 87 60 52 100 81 41 20 16 14 22 46 24 28 36 35 35 32 39 38 37 33 14 16 29 56 48 40 39 40 38 39 36 44 42 50 43 49 55 51 49 45 27 26
99 99 98 84 68 59 72 60 40 28 22 15 29 44 34 38 39 42 40 39 36 33 28 14 17 27 40 36 39 35 13 19 26 36 33 38 44 44 48 50 48 48 47 30 45

GFSSW_700_rhum_273.txt.gz
RH
6 6 6 7 12 15 12 12 9 6 7 6 7 7 6 5 4 4 5 8 12 14 24 25 22 15 10 7 6 5 9 19 19 25 26 25 23 34 52 65 50 58 43 47 45
6 6 7 8 10 9 10 7 4 3 3 3 3 4 5 6 6 6 6 7 10 15 24 28 24 17 13 9 7 8 15 20 20 27 27 23 29 38 47 45 34 67 88 94 38
6 6 6 6 6 9 5 7 5 4 3 3 3 2 2 2 3 5 6 6 11 17 22 31 30 24 23 20 14 19 23 31 32 32 29 24 22 28 36 42 51 67 85 96 95
3 2 2 3 6 7 2 2 3 3 3 4 5 4 3 3 16 7 4 4 7 14 20 26 31 23 22 26 28 33 41 36 36 34 31 28 24 22 22 24 20 25 35 42 51
2 2 2 2 2 2 2 2 3 3 3 3 4 4 4 3 3 4 2 2 3 6 8 19 18 15 17 24 38 37 37 35 33 32 30 30 26 23 21 25 28 18 18 29 35
2 2 2 3 3 3 3 3 4 4 4 3 3 6 6 5 7 5 2 2 2 3 4 8 8 15 21 23 33 26 32 26 19 20 20 17 17 20 23 23 29 28 20 16 25
2 3 3 4 4 5 4 4 4 4 4 3 3 3 3 4 5 4 3 2 2 2 3 5 10 19 20 24 27 22 21 19 21 20 16 17 16 20 19 22 27 28 25 19 15
2 3 3 4 5 5 5 5 4 4 4 3 3 3 3 3 4 2 5 2 2 3 5 14 14 21 20 23 25 17 20 22 24 24 23 20 33 29 27 25 22 24 26 26 26
3 3 3 4 5 6 6 5 5 4 4 3 3 3 4 3 3 3 4 2 4 4 9 19 22 20 20 19 15 17 16 21 24 25 26 23 28 29 25 21 19 18 19 19 20
5 4 4 4 5 6 6 5 4 4 4 3 3 4 5 4 3 10 7 7 23 23 21 22 21 17 17 16 18 17 19 26 25 25 26 24 23 24 26 27 24 22 18 14 14
7 6 5 4 5 6 6 5 5 5 4 4 6 4 7 4 3 19 17 26 32 25 21 19 17 23 25 21 18 20 22 27 28 28 28 27 28 28 30 35 32 28 20 17 16
9 8 7 5 5 6 6 5 5 8 6 4 5 9 10 4 5 17 26 29 28 26 25 17 20 29 28 25 25 25 26 28 38 41 32 29 31 34 38 36 33 28 23 22 22
10 10 8 6 5 6 6 6 5 6 11 9 7 6 7 4 6 11 24 28 25 21 22 16 26 31 30 31 28 32 29 29 29 47 31 36 37 39 43 44 38 34 32 34 34
10 10 9 7 7 6 7 6 6 6 12 11 11 6 5 4 5 6 21 24 25 27 31 30 25 29 26 33 34 34 29 18 40 37 39 42 48 50 54 45 37 41 39 37 41
10 11 10 8 7 7 7 6 6 6 26 15 15 14 9 6 8 4 24 25 24 28 26 32 36 31 25 27 37 36 37 38 47 46 50 56 55 59 52 39 33 36 36 43 46
9 11 11 10 8 8 7 7 7 11 15 29 27 14 12 9 10 6 26 27 28 27 25 22 26 30 31 28 44 31 26 42 45 47 59 52 51 59 51 44 40 34 38 47 46
10 10 11 10 9 8 8 8 16 11 14 30 28 25 15 10 18 6 21 27 23 33 36 25 15 13 17 24 32 25 27 53 63 72 75 64 59 55 55 47 43 38 36 43 43
12 10 11 11 10 12 10 12 10 8 15 30 27 24 23 14 20 10 15 21 20 19 32 21 26 15 29 26 26 22 42 43 61 88 77 66 70 60 56 53 47 43 42 44 43
15 11 11 12 11 13 20 21 8 8 24 33 31 27 23 20 16 21 10 13 16 20 21 31 30 28 16 29 26 21 33 45 58 71 70 74 70 63 62 55 49 45 42 38 33
25 14 12 13 12 13 36 22 10 17 38 34 29 25 20 17 23 21 11 14 20 28 30 34 33 36 32 16 22 34 23 32 44 85 88 84 88 57 52 51 39 32 29 27 29
59 26 16 14 13 14 36 24 12 22 44 42 29 25 19 19 26 24 23 24 22 24 34 32 32 38 30 17 18 29 29 38 46 57 84 96 58 34 44 27 15 20 21 23 18
88 66 26 17 16 20 15 13 12 12 49 44 32 28 24 24 26 28 28 26 29 30 29 33 33 39 37 32 35 36 23 14 28 68 72 64 22 24 34 12 12 20 23 21 16
100 84 53 28 21 17 16 14 16 13 38 44 35 29 28 25 30 29 24 26 32 32 31 30 36 41 42 41 44 42 34 25 16 38 56 52 22 36 32 23 24 31 31 17 9
100 98 90 87 44 24 19 14 17 16 15 51 37 32 31 31 28 27 27 30 33 36 20 26 24 22 26 25 24 34 26 16 20 29 37 27 22 40 35 32 32 38 41 40 12
97 92 85 82 100 55 46 19 14 16 17 19 44 35 34 34 32 30 31 29 32 38 24 14 26 27 28 26 35 44 21 13 14 12 12 16 23 29 37 39 42 46 46 47 30
99 100 88 82 68 100 92 37 20 15 14 16 27 37 34 38 36 32 31 31 31 36 37 17 17 18 43 42 39 42 43 37 22 20 21 26 28 38 47 52 50 45 48 48 38
99 97 97 93 84 70 70 49 38 34 19 13 15 23 36 32 41 42 42 36 34 35 35 35 18 19 51 53 52 44 29 26 24 21 17 24 13 36 45 43 37 41 48 49 41